Flag for U.S.A. Weather past 2 weeks in Norfolk, Virginia, U.S.A.

Now
74 °F

Passing clouds.


Feels Like: 74 °F
Forecast: 72 / 90 °F
Wind: 5 mph from Southwest

Location: Norfolk Naval Air Station

Current Time: Aug 1, 2015 at 1:44:35 AM

Latest Report: Aug 1, 2015 at 12:59 AM


Visibility: 10 mi

Pressure: 29.93 "Hg

Humidity: 79%

Dew point: 67 °F

Location of NorfolkLocation

Historic Weather in Norfolk — Graph

°F

Norfolk temperature yesterday

Maximum temperature yesterday: 86 °F (at 1:59 PM)
Minimum temperature yesterday: 74 °F (at 5:59 AM)
Average temperature yesterday: 80 °F

Past Weeks' High & Low Weather Summary

 TemperatureHumidityPressure
High93 °F (Jul 20, 2:59 PM)97% (Jul 31, 3:59 AM)30.10 "Hg (Jul 31, 3:59 AM)
Low65 °F (Jul 26, 3:59 AM)31% (Jul 26, 3:59 PM)29.63 "Hg (Jul 21, 3:59 PM)
Average80 °F71%29.94 "Hg
* Reported Jul 16 11:59 PM — Jul 31 11:59 PM, Norfolk, Weather by CustomWeather, © 2015

Note: Actual official high and low records may vary slightly from our data, if they occured in-between our weather recording intervals... More about our weather records

Advertising

Norfolk weather history for previous 24 hours

 ConditionsComfort  
Time TempWeatherWind HumidityBarometerVisibility
11:59 PM
Fri, Jul 31
76 °FPassing clouds.5 mph72%29.94 "Hg10 mi
10:59 PM76 °FPassing clouds.7 mph72%29.95 "Hg10 mi
9:59 PM74 °FPartly cloudy.No wind79%29.93 "Hg10 mi
8:59 PM76 °FScattered clouds.No wind72%29.91 "Hg10 mi
7:59 PM79 °FScattered clouds.3 mph67%29.91 "Hg10 mi
6:59 PM84 °FPassing clouds.5 mph51%29.89 "Hg10 mi
5:59 PM84 °FScattered clouds.8 mph51%29.88 "Hg10 mi
4:59 PM85 °FPassing clouds.8 mph48%29.89 "Hg10 mi
3:59 PM86 °FPassing clouds.10 mph46%29.90 "Hg10 mi
2:59 PM86 °FPassing clouds.9 mph49%29.91 "Hg10 mi
1:59 PM86 °FPassing clouds.12 mph51%29.93 "Hg10 mi
12:59 PM85 °FPassing clouds.13 mph53%29.95 "Hg10 mi
11:59 AM85 °FPassing clouds.14 mph55%29.94 "Hg10 mi
10:59 AM84 °FPassing clouds.13 mph53%29.94 "Hg10 mi
9:59 AM82 °FPassing clouds.8 mph77%29.94 "Hg9 mi
8:59 AM79 °FScattered clouds.9 mph84%29.94 "Hg7 mi
7:59 AM78 °FScattered clouds.6 mph82%29.93 "Hg8 mi
6:59 AM75 °FFog.No wind94%29.91 "Hg5 mi
5:59 AM74 °FFog.8 mph97%29.90 "Hg5 mi
4:59 AM75 °FHeavy rain. Fog.7 mph96%29.91 "Hg2 mi
3:59 AM76 °FStrong thunderstorms. Fog.7 mph97%29.90 "Hg2 mi
2:59 AM80 °FThunderstorms. Mostly cloudy.3 mph85%29.89 "Hg9 mi
1:59 AM79 °FPassing clouds.6 mph84%29.88 "Hg9 mi
Weather by CustomWeather, © 2015

See weather overviewHow to use our weather pages